When you browse on this site, cookies collect data to enhance your experience and personalize the content and advertising you see.
Visit our Privacy Policy to learn more. By continuing to use the site, you agree to this use of cookies and data.
  • In Austria
  • List of Countries
  • For 7 days
  • Water Temperature
  • Weather Map
  • News
  • Weather Widgets
  • user-avatar
    Login

    Hourly Weather Tepeji de Ocampo

    Today, 18 August, Sunday

    Time Temperature Precipitation Wind Pressure Humidity
    00:00 +15°C° 0 mm 1 mps 588 mmHg 89%
    01:00 +14°C° 0 mm 0 mps 588 mmHg 89%
    02:00 +14°C° 0 mm 0 mps 587 mmHg 90%
    03:00 +13°C° 0 mm 0 mps 587 mmHg 89%
    04:00 +13°C° 0 mm 0 mps 587 mmHg 89%
    05:00 +13°C° 0 mm 0 mps 587 mmHg 89%
    06:00 +15°C° 0 mm 0 mps 588 mmHg 83%
    07:00 +16°C° 0 mm 0 mps 589 mmHg 77%
    08:00 +18°C° 0 mm 0 mps 590 mmHg 72%
    09:00 +22°C° 0 mm 1 mps 591 mmHg 64%
    10:00 +23°C° 0 mm 2 mps 591 mmHg 56%
    11:00 +25°C° 0 mm 3 mps 591 mmHg 48%
    12:00 +26°C° 0 mm 3 mps 591 mmHg 46%
    13:00 +26°C° 0 mm 4 mps 591 mmHg 45%
    14:00 +26°C° 0 mm 4 mps 590 mmHg 43%
    15:00 +25°C° 0 mm 4 mps 590 mmHg 49%
    16:00 +23°C° 0 mm 4 mps 589 mmHg 55%
    17:00 +22°C° 0 mm 4 mps 588 mmHg 62%
    18:00 +20°C° 0.3 mm 3 mps 588 mmHg 71%
    19:00 +19°C° 0.3 mm 2 mps 588 mmHg 80%
    20:00 +18°C° 0.3 mm 1 mps 588 mmHg 89%
    21:00 +16°C° 0.1 mm 1 mps 588 mmHg 91%
    22:00 +16°C° 0.1 mm 1 mps 588 mmHg 92%
    23:00 +15°C° 0.1 mm 1 mps 588 mmHg 94%

    Tomorrow, 19 August, Monday

    Time Temperature Precipitation Wind Pressure Humidity
    00:00 +15°C° 0 mm 1 mps 587 mmHg 94%
    01:00 +15°C° 0 mm 1 mps 587 mmHg 95%
    02:00 +14°C° 0 mm 1 mps 587 mmHg 96%
    03:00 +15°C° 0 mm 1 mps 587 mmHg 95%
    04:00 +15°C° 0 mm 1 mps 587 mmHg 95%
    05:00 +15°C° 0 mm 1 mps 588 mmHg 94%
    06:00 +16°C° 0 mm 1 mps 588 mmHg 90%
    07:00 +16°C° 0 mm 1 mps 589 mmHg 85%
    08:00 +17°C° 0 mm 2 mps 589 mmHg 81%
    09:00 +19°C° 0 mm 2 mps 589 mmHg 74%
    10:00 +20°C° 0 mm 3 mps 590 mmHg 67%
    11:00 +22°C° 0 mm 3 mps 590 mmHg 60%
    12:00 +22°C° 0.2 mm 4 mps 590 mmHg 60%
    13:00 +22°C° 0.2 mm 5 mps 589 mmHg 60%
    14:00 +23°C° 0.2 mm 6 mps 589 mmHg 60%
    15:00 +22°C° 0.4 mm 6 mps 589 mmHg 65%
    16:00 +21°C° 0.4 mm 6 mps 588 mmHg 70%
    17:00 +19°C° 0.4 mm 6 mps 588 mmHg 75%
    18:00 +18°C° 0 mm 4 mps 588 mmHg 80%
    19:00 +17°C° 0 mm 3 mps 588 mmHg 85%
    20:00 +15°C° 0 mm 2 mps 588 mmHg 91%
    21:00 +15°C° 0 mm 2 mps 588 mmHg 92%
    22:00 +14°C° 0 mm 1 mps 588 mmHg 93%
    23:00 +14°C° 0 mm 1 mps 588 mmHg 94%

    Day after tomorrow, 20 August, Tuesday

    Time Temperature Precipitation Wind Pressure Humidity
    00:00 +13°C° 0 mm 1 mps 588 mmHg 94%
    01:00 +13°C° 0 mm 1 mps 587 mmHg 94%
    02:00 +13°C° 0 mm 1 mps 587 mmHg 94%
    03:00 +12°C° 0 mm 1 mps 587 mmHg 94%
    04:00 +12°C° 0 mm 1 mps 587 mmHg 94%
    05:00 +12°C° 0 mm 1 mps 587 mmHg 94%
    06:00 +13°C° 0 mm 1 mps 588 mmHg 88%
    07:00 +14°C° 0 mm 1 mps 588 mmHg 82%
    08:00 +15°C° 0 mm 1 mps 589 mmHg 76%
    09:00 +17°C° 0 mm 2 mps 590 mmHg 68%
    10:00 +19°C° 0 mm 3 mps 590 mmHg 61%
    11:00 +21°C° 0 mm 3 mps 591 mmHg 53%
    12:00 +22°C° 0 mm 4 mps 591 mmHg 54%
    13:00 +22°C° 0 mm 5 mps 590 mmHg 56%
    14:00 +22°C° 0 mm 6 mps 590 mmHg 57%
    15:00 +21°C° 0.4 mm 6 mps 589 mmHg 64%
    16:00 +20°C° 0.4 mm 5 mps 589 mmHg 70%
    17:00 +19°C° 0.4 mm 5 mps 588 mmHg 77%
    18:00 +17°C° 0.1 mm 4 mps 588 mmHg 82%
    19:00 +16°C° 0.1 mm 3 mps 588 mmHg 87%
    20:00 +14°C° 0.1 mm 2 mps 588 mmHg 93%
    21:00 +14°C° 0 mm 2 mps 589 mmHg 93%
    22:00 +14°C° 0 mm 1 mps 589 mmHg 93%
    23:00 +14°C° 0 mm 1 mps 589 mmHg 93%

    21 August, Wednesday

    Time Temperature Precipitation Wind Pressure Humidity
    00:00 +14°C° 0 mm 1 mps 589 mmHg 93%
    01:00 +14°C° 0 mm 1 mps 589 mmHg 93%
    02:00 +14°C° 0 mm 1 mps 588 mmHg 94%
    03:00 +14°C° 0 mm 1 mps 588 mmHg 94%
    04:00 +13°C° 0 mm 1 mps 588 mmHg 93%
    05:00 +13°C° 0 mm 1 mps 588 mmHg 93%
    06:00 +14°C° 0 mm 1 mps 589 mmHg 88%
    07:00 +15°C° 0 mm 1 mps 589 mmHg 83%
    08:00 +16°C° 0 mm 2 mps 590 mmHg 78%
    09:00 +18°C° 0 mm 2 mps 590 mmHg 71%
    10:00 +19°C° 0 mm 3 mps 591 mmHg 63%
    11:00 +21°C° 0 mm 3 mps 591 mmHg 55%
    12:00 +21°C° 0 mm 4 mps 590 mmHg 55%
    13:00 +22°C° 0 mm 4 mps 590 mmHg 55%
    14:00 +22°C° 0 mm 4 mps 590 mmHg 56%
    15:00 +21°C° 0.6 mm 4 mps 589 mmHg 63%
    16:00 +20°C° 0.6 mm 4 mps 589 mmHg 71%
    17:00 +19°C° 0.6 mm 4 mps 588 mmHg 78%
    18:00 +17°C° 0.3 mm 3 mps 588 mmHg 83%
    19:00 +16°C° 0.3 mm 2 mps 588 mmHg 87%
    20:00 +15°C° 0.3 mm 1 mps 588 mmHg 92%
    21:00 +14°C° 0 mm 1 mps 589 mmHg 92%
    22:00 +14°C° 0 mm 1 mps 589 mmHg 92%
    23:00 +14°C° 0 mm 1 mps 589 mmHg 92%

    22 August, Thursday

    Time Temperature Precipitation Wind Pressure Humidity
    00:00 +13°C° 0.1 mm 0 mps 589 mmHg 92%
    01:00 +13°C° 0.1 mm 0 mps 588 mmHg 92%
    02:00 +13°C° 0.1 mm 0 mps 588 mmHg 92%
    03:00 +13°C° 0 mm 0 mps 588 mmHg 93%
    04:00 +12°C° 0 mm 0 mps 588 mmHg 93%
    05:00 +12°C° 0 mm 0 mps 588 mmHg 93%
    06:00 +13°C° 0 mm 0 mps 589 mmHg 88%
    07:00 +15°C° 0 mm 0 mps 590 mmHg 84%
    08:00 +16°C° 0 mm 0 mps 590 mmHg 79%
    09:00 +20°C° 0.2 mm 1 mps 591 mmHg 73%
    10:00 +22°C° 0.2 mm 1 mps 591 mmHg 66%
    11:00 +23°C° 0.2 mm 1 mps 592 mmHg 60%
    12:00 +23°C° 1.3 mm 1 mps 591 mmHg 60%
    13:00 +23°C° 1.3 mm 1 mps 591 mmHg 60%
    14:00 +24°C° 1.3 mm 1 mps 590 mmHg 60%
    15:00 +22°C° 2 mm 1 mps 589 mmHg 70%
    16:00 +20°C° 2 mm 1 mps 589 mmHg 79%
    17:00 +18°C° 2 mm 2 mps 588 mmHg 88%
    18:00 +18°C° 2.2 mm 1 mps 588 mmHg 90%
    19:00 +16°C° 2.2 mm 1 mps 589 mmHg 91%
    20:00 +15°C° 2.2 mm 1 mps 589 mmHg 93%
    21:00 +15°C° 1.2 mm 1 mps 589 mmHg 94%
    22:00 +15°C° 1.2 mm 1 mps 589 mmHg 94%
    23:00 +14°C° 1.2 mm 0 mps 589 mmHg 95%

    23 August, Friday

    Time Temperature Precipitation Wind Pressure Humidity
    00:00 +14°C° 0.3 mm 0 mps 589 mmHg 94%
    01:00 +14°C° 0.3 mm 0 mps 589 mmHg 94%
    02:00 +15°C° 0.3 mm 1 mps 588 mmHg 94%
    03:00 +14°C° 0.1 mm 0 mps 589 mmHg 93%
    04:00 +14°C° 0.1 mm 0 mps 589 mmHg 92%
    05:00 +14°C° 0.1 mm 0 mps 589 mmHg 91%
    06:00 +16°C° 0 mm 1 mps 590 mmHg 87%
    07:00 +18°C° 0 mm 1 mps 590 mmHg 84%
    08:00 +19°C° 0 mm 1 mps 590 mmHg 81%
    09:00 +20°C° 0.1 mm 1 mps 591 mmHg 73%
    10:00 +22°C° 0.1 mm 1 mps 591 mmHg 65%
    11:00 +24°C° 0.1 mm 1 mps 592 mmHg 58%
    12:00 +24°C° 1.2 mm 1 mps 591 mmHg 59%
    13:00 +24°C° 1.2 mm 2 mps 591 mmHg 60%
    14:00 +24°C° 1.2 mm 2 mps 590 mmHg 61%
    15:00 +21°C° 3.1 mm 2 mps 589 mmHg 71%
    16:00 +19°C° 3.1 mm 2 mps 589 mmHg 80%
    17:00 +18°C° 3.1 mm 1 mps 588 mmHg 90%
    18:00 +17°C° 4.7 mm 2 mps 588 mmHg 91%
    19:00 +16°C° 4.7 mm 2 mps 589 mmHg 91%
    20:00 +16°C° 4.7 mm 2 mps 589 mmHg 92%
    21:00 +16°C° 1 mm 1 mps 589 mmHg 91%
    22:00 +15°C° 1 mm 1 mps 589 mmHg 90%
    23:00 +14°C° 1 mm 0 mps 589 mmHg 89%
    Show more